Volver al catálogo

THORAD AGENA D DEB

ActivoLEO
NORAD 4679·DEBRIS·🇺🇸 United States

Lanzado Apr 8, 1970 desde Vandenberg Space Force Base

Loading…

Próximos Pases (próximas 24 horas)

TLE

ActualizadoSource: Space-Track

Época: Sep 14, 2026, 09:11 UTC

1 04679U 70025BC  26257.38302236  .00000257  00000-0  35656-3 0  9991
2 04679 100.1925  83.2144 0017387 338.2576 140.0272 13.68732620802428

Sigue THORAD AGENA D DEB en tiempo real con AllMySat

Download on the App Store